FENGYUN 1C DEB

Satellite information

Favourite Embed

Satellite Type and Status

DEBRISIN ORBIT

Key statistics

Satellite FENGYUN 1C DEB at a glance.

Uptime

9497

Days in orbit

Revolutions

≈ 14.6

Per day

Orbit

SSO

Sun Synchronous Orbit

Inclination

99.1

Latest

Satellite identification and parameters

Extended collection of information and parameters for FENGYUN 1C DEB.

Object identification

Identified? True

Debris? True

Object name: FENGYUN 1C DEB

International designator: 1999-025BCR

Object number (NORAD): 30999

Object ID (CCSDS): 30999

Country: PEOPLES REPUBLIC OF CHINA (PRC)

Current information (Y/N): Y

RCS size: SMALL

Orbital parameters

Period: 98.846 minutes

Inclination: 99.0751 deg

SMA: 7081.626 km

Apoapsis: 785.037 km

Periapsis: 621.945 km

RAAN: 282.2333 deg

Eccentricy: 0.0115151

Argument of periapsis: 278.6793 deg

Mean anomaly: 80.1373 deg

Mean motion: 14.56811234 rev/day

Mean motion (dot): 0.0000285 rev/day2

B* drag term: 0.00059398 1/REarth

Two-line elements (TLE)

Creation date: May 9, 2025, 2:46 a.m.

Reference frame: TEME

Reference center: EARTH

Epoch: May 8, 2025, 9:14 a.m. UTC

TLE line 0: 0 FENGYUN 1C DEB

TLE line 1: 1 30999U 99025BCR 25128.38518588 .00002850 00000-0 59398-3 0 9991

TLE line 2: 2 30999 99.0751 282.2333 0115151 278.6793 80.1373 14.56811234956504

Live tracking on map

Real-time ground track for satellite FENGYUN 1C DEB.

In-orbit conjunctions

A list of the most updated potential collisions computed for object FENGYUN 1C DEB.

Target Orbit TCA Probability of collision Miss distance Type
CZ-6A DEB LEO 2024-11-14 06:59:01 0.0002594716 839.0 (m) DEBRIS
METEOR 2-5 DEB LEO 2024-07-06 10:33:08 0.0003320361 108.0 (m) DEBRIS

Associated space launch

Chinese polar orbiting meteorological satellite

FENGYUN 1C DEB was lifted into orbit during the mission ‘Long March 4B | Feng Yun 1C’, on board a Long March 4B space rocket.

The launch took place on May 10, 1999, 1:33 a.m. from Launch Complex 7.

For more information about the launch, click the button.

Launch to space Long March 4B | Feng Yun 1C
Long March 4B | Feng Yun 1C

Agency: N/A

Status: Launch Successful

Launch date: May 10, 1999, 1:33 a.m. UTC

Rocket: Long March 4B

Launch pad: Launch Complex 7

Location: Taiyuan Satellite Launch Center, People's Republic of China

...

Latest news about this satellite

There are no fresh news available about this satellite. Check back as we update our databases every day.


Newsletter sign-up

Weekly statistics, charts and insights to help you stay on top of the space industry.